STARLINK-4008 (52622 NORAD) Tracking and Keplerian Element Data

This shows tracking and keplerian element data for the satellite.

Feedback or suggestion? Click here.




ElementValue
Catalog52622
NameSTARLINK-4008
Epoch Orbit130
Epoch Day167.08334491
Epoch Year2022
RAAN282.8306
Inclination53.2176
Eccentricity0.0001266
Argument of Perigee67.9932
Mean Anonmoly81.497
Mean Motion15.39820324
Decay Rate-0.00843238
L11 52622U 22052AA 22167.08334491 -.00843238 00000+0 -22654-1 0 9997
L22 52622 53.2176 282.8306 0001266 67.9932 81.4970 15.39820324 1303

Live tracking and technical data element details for STARLINK-4008 (NORAD 52622). STARLINK-4008 can be tracked NOW for your location showing map with azimuth and elevation plus other details from your city location.

Track the satellite on the map from your city or location and see movement details for azimuth, elevation, latitude, longitude, range, height, and movement on the map or in text.







IsCatalogInMostPopularTable: catalog: 52622, numindb: 1
Update: records affected: 1



GetName: 52622 STARLINK-4008

Hit Count: updated at: Mon, 27 Jun 2022 04:36:49 GMT